Time,TemperatureF,DewpointF,PressureIn,WindDirection,WindDirectionDegrees,WindSpeedMPH,WindSpeedGustMPH,Humidity,HourlyPrecipIn,Conditions,Clouds,dailyrainin,SolarRadiationWatts/m^2,SoftwareType,DateUTC
2013-09-02 00:03:00,66.0,52.0,-100.00,ESE,103,7.0,15.0,61,0.00,,,0.00,0.000000,,2013-09-02 06:03:00,
2013-09-02 00:12:00,66.0,52.0,-100.00,ESE,103,7.0,15.0,61,0.00,,,0.00,0.000000,,2013-09-02 06:12:00,
2013-09-02 00:22:00,66.0,52.0,-100.00,ESE,103,7.0,15.0,61,0.00,,,0.00,0.000000,,2013-09-02 06:22:00,
2013-09-02 00:30:00,63.0,53.0,-100.00,ESE,102,7.0,17.0,70,0.00,,,0.00,0.000000,,2013-09-02 06:30:00,
2013-09-02 00:52:00,63.0,53.0,-100.00,ESE,102,7.0,17.0,70,0.00,,,0.00,0.000000,,2013-09-02 06:52:00,
2013-09-02 01:01:00,63.0,53.0,-100.00,ESE,102,7.0,17.0,70,0.00,,,0.00,0.000000,,2013-09-02 07:01:00,
2013-09-02 01:11:00,63.0,53.0,-100.00,ESE,102,7.0,17.0,70,0.00,,,0.00,0.000000,,2013-09-02 07:11:00,
2013-09-02 01:21:00,63.0,53.0,-100.00,ESE,102,7.0,17.0,70,0.00,,,0.00,0.000000,,2013-09-02 07:21:00,
2013-09-02 01:30:00,62.0,53.0,-100.00,NE,56,5.0,12.0,73,0.00,,,0.00,0.000000,,2013-09-02 07:30:00,
2013-09-02 01:52:00,62.0,53.0,-100.00,NE,56,5.0,12.0,73,0.00,,,0.00,0.000000,,2013-09-02 07:52:00,
2013-09-02 02:02:00,62.0,53.0,-100.00,NE,56,5.0,12.0,73,0.00,,,0.00,0.000000,,2013-09-02 08:02:00,
2013-09-02 02:11:00,62.0,53.0,-100.00,NE,56,5.0,12.0,73,0.00,,,0.00,0.000000,,2013-09-02 08:11:00,
2013-09-02 02:22:00,62.0,53.0,-100.00,NE,56,5.0,12.0,73,0.00,,,0.00,0.000000,,2013-09-02 08:22:00,
2013-09-02 02:30:00,63.0,52.0,-100.00,ENE,62,5.0,11.0,67,0.00,,,0.00,0.000000,,2013-09-02 08:30:00,
2013-09-02 02:52:00,63.0,52.0,-100.00,ENE,62,5.0,11.0,67,0.00,,,0.00,0.000000,,2013-09-02 08:52:00,
2013-09-02 03:01:00,63.0,52.0,-100.00,ENE,62,5.0,11.0,67,0.00,,,0.00,0.000000,,2013-09-02 09:01:00,
2013-09-02 03:12:00,63.0,52.0,-100.00,ENE,62,5.0,11.0,67,0.00,,,0.00,0.000000,,2013-09-02 09:12:00,
2013-09-02 03:22:00,63.0,52.0,-100.00,ENE,62,5.0,11.0,67,0.00,,,0.00,0.000000,,2013-09-02 09:22:00,
2013-09-02 03:30:00,63.0,50.0,-100.00,ENE,77,4.0,10.0,62,0.00,,,0.00,0.000000,,2013-09-02 09:30:00,
2013-09-02 03:53:00,63.0,50.0,-100.00,ENE,77,4.0,10.0,62,0.00,,,0.00,0.000000,,2013-09-02 09:53:00,
2013-09-02 04:03:00,63.0,50.0,-100.00,ENE,77,4.0,10.0,62,0.00,,,0.00,0.000000,,2013-09-02 10:03:00,
2013-09-02 04:13:00,63.0,50.0,-100.00,ENE,77,4.0,10.0,62,0.00,,,0.00,0.000000,,2013-09-02 10:13:00,
2013-09-02 04:22:00,63.0,50.0,-100.00,ENE,77,4.0,10.0,62,0.00,,,0.00,0.000000,,2013-09-02 10:22:00,
2013-09-02 04:30:00,62.0,49.0,-100.00,ENE,77,3.0,7.0,63,0.00,,,0.00,0.000000,,2013-09-02 10:30:00,
2013-09-02 04:53:00,62.0,49.0,-100.00,ENE,77,3.0,7.0,63,0.00,,,0.00,0.000000,,2013-09-02 10:53:00,
2013-09-02 05:03:00,62.0,49.0,-100.00,ENE,77,3.0,7.0,63,0.00,,,0.00,0.000000,,2013-09-02 11:03:00,
2013-09-02 05:11:00,62.0,49.0,-100.00,ENE,77,3.0,7.0,63,0.00,,,0.00,0.000000,,2013-09-02 11:11:00,
2013-09-02 05:22:00,62.0,49.0,-100.00,ENE,77,3.0,7.0,63,0.00,,,0.00,0.000000,,2013-09-02 11:22:00,
2013-09-02 05:30:00,62.0,49.0,-100.00,ENE,63,3.0,7.0,62,0.00,,,0.00,0.000000,,2013-09-02 11:30:00,
2013-09-02 05:52:00,62.0,49.0,-100.00,ENE,63,3.0,7.0,62,0.00,,,0.00,0.000000,,2013-09-02 11:52:00,
2013-09-02 06:02:00,62.0,49.0,-100.00,ENE,63,3.0,7.0,62,0.00,,,0.00,0.000000,,2013-09-02 12:02:00,
2013-09-02 06:12:00,62.0,49.0,-100.00,ENE,63,3.0,7.0,62,0.00,,,0.00,0.000000,,2013-09-02 12:12:00,
2013-09-02 06:21:00,62.0,49.0,-100.00,ENE,63,3.0,7.0,62,0.00,,,0.00,0.000000,,2013-09-02 12:21:00,
2013-09-02 06:30:00,61.0,48.0,-100.00,East,87,2.0,6.0,62,0.00,,,0.00,0.000000,,2013-09-02 12:30:00,
2013-09-02 06:52:00,61.0,48.0,-100.00,East,87,2.0,6.0,62,0.00,,,0.00,0.000000,,2013-09-02 12:52:00,
2013-09-02 07:02:00,61.0,48.0,-100.00,East,87,2.0,6.0,62,0.00,,,0.00,0.000000,,2013-09-02 13:02:00,
2013-09-02 07:11:00,61.0,48.0,-100.00,East,87,2.0,6.0,62,0.00,,,0.00,0.000000,,2013-09-02 13:11:00,
2013-09-02 07:21:00,61.0,48.0,-100.00,East,87,2.0,6.0,62,0.00,,,0.00,0.000000,,2013-09-02 13:21:00,
2013-09-02 07:30:00,61.0,49.0,-100.00,East,96,2.0,7.0,64,-99.99,,,0.00,27.000000,,2013-09-02 13:30:00,
2013-09-02 07:52:00,61.0,49.0,-100.00,East,96,2.0,7.0,64,-99.99,,,0.00,27.000000,,2013-09-02 13:52:00,
2013-09-02 08:02:00,61.0,49.0,-100.00,East,96,2.0,7.0,64,-99.99,,,0.00,27.000000,,2013-09-02 14:02:00,
2013-09-02 08:11:00,61.0,49.0,-100.00,East,96,2.0,7.0,64,-99.99,,,0.00,27.000000,,2013-09-02 14:11:00,
2013-09-02 08:22:00,61.0,49.0,-100.00,East,96,2.0,7.0,64,-99.99,,,0.00,27.000000,,2013-09-02 14:22:00,
2013-09-02 08:30:00,66.0,50.0,-100.00,East,97,5.0,11.0,57,0.00,,,0.00,178.000000,,2013-09-02 14:30:00,
2013-09-02 08:52:00,66.0,50.0,-100.00,East,97,5.0,11.0,57,0.00,,,0.00,178.000000,,2013-09-02 14:52:00,
2013-09-02 09:02:00,66.0,50.0,-100.00,East,97,5.0,11.0,57,0.00,,,0.00,178.000000,,2013-09-02 15:02:00,
2013-09-02 09:12:00,66.0,50.0,-100.00,East,97,5.0,11.0,57,0.00,,,0.00,178.000000,,2013-09-02 15:12:00,
2013-09-02 09:23:00,66.0,50.0,-100.00,East,97,5.0,11.0,57,0.00,,,0.00,178.000000,,2013-09-02 15:23:00,
2013-09-02 09:30:00,71.0,52.0,-100.00,ESE,108,5.0,12.0,51,0.00,,,0.00,335.000000,,2013-09-02 15:30:00,
2013-09-02 09:55:00,71.0,52.0,-100.00,ESE,108,5.0,12.0,51,0.00,,,0.00,335.000000,,2013-09-02 15:55:00,
2013-09-02 10:04:00,71.0,52.0,-100.00,ESE,108,5.0,12.0,51,0.00,,,0.00,335.000000,,2013-09-02 16:04:00,
2013-09-02 10:14:00,71.0,52.0,-100.00,ESE,108,5.0,12.0,51,0.00,,,0.00,335.000000,,2013-09-02 16:14:00,
2013-09-02 10:24:00,71.0,52.0,-100.00,ESE,108,5.0,12.0,51,0.00,,,0.00,335.000000,,2013-09-02 16:24:00,
2013-09-02 10:30:00,76.0,52.0,-100.00,SE,130,5.0,10.0,43,0.00,,,0.00,706.000000,,2013-09-02 16:30:00,
2013-09-02 10:53:00,76.0,52.0,-100.00,SE,130,5.0,10.0,43,0.00,,,0.00,706.000000,,2013-09-02 16:53:00,
2013-09-02 11:03:00,76.0,52.0,-100.00,SE,130,5.0,10.0,43,0.00,,,0.00,706.000000,,2013-09-02 17:03:00,
2013-09-02 11:12:00,76.0,52.0,-100.00,SE,130,5.0,10.0,43,0.00,,,0.00,706.000000,,2013-09-02 17:12:00,
2013-09-02 11:23:00,76.0,52.0,-100.00,SE,130,5.0,10.0,43,0.00,,,0.00,706.000000,,2013-09-02 17:23:00,
2013-09-02 11:30:00,78.0,52.0,-100.00,SE,137,6.0,10.0,40,0.00,,,0.00,872.000000,,2013-09-02 17:30:00,
2013-09-02 11:52:00,78.0,52.0,-100.00,SE,137,6.0,10.0,40,0.00,,,0.00,872.000000,,2013-09-02 17:52:00,
2013-09-02 12:02:00,78.0,52.0,-100.00,SE,137,6.0,10.0,40,0.00,,,0.00,872.000000,,2013-09-02 18:02:00,
2013-09-02 12:13:00,78.0,52.0,-100.00,SE,137,6.0,10.0,40,0.00,,,0.00,872.000000,,2013-09-02 18:13:00,
2013-09-02 12:22:00,78.0,52.0,-100.00,SE,137,6.0,10.0,40,0.00,,,0.00,872.000000,,2013-09-02 18:22:00,
2013-09-02 12:30:00,80.0,51.0,-100.00,SSE,168,4.0,10.0,36,0.00,,,0.00,982.000000,,2013-09-02 18:30:00,
2013-09-02 12:52:00,80.0,51.0,-100.00,SSE,168,4.0,10.0,36,0.00,,,0.00,982.000000,,2013-09-02 18:52:00,
2013-09-02 13:02:00,80.0,51.0,-100.00,SSE,168,4.0,10.0,36,0.00,,,0.00,982.000000,,2013-09-02 19:02:00,
2013-09-02 13:12:00,80.0,51.0,-100.00,SSE,168,4.0,10.0,36,0.00,,,0.00,982.000000,,2013-09-02 19:12:00,
2013-09-02 13:22:00,80.0,51.0,-100.00,SSE,168,4.0,10.0,36,0.00,,,0.00,982.000000,,2013-09-02 19:22:00,
2013-09-02 13:30:00,82.0,50.0,-100.00,WSW,245,5.0,11.0,33,0.00,,,0.00,997.000000,,2013-09-02 19:30:00,
2013-09-02 13:52:00,82.0,50.0,-100.00,WSW,245,5.0,11.0,33,0.00,,,0.00,997.000000,,2013-09-02 19:52:00,
2013-09-02 14:02:00,82.0,50.0,-100.00,WSW,245,5.0,11.0,33,0.00,,,0.00,997.000000,,2013-09-02 20:02:00,
2013-09-02 14:12:00,82.0,50.0,-100.00,WSW,245,5.0,11.0,33,0.00,,,0.00,997.000000,,2013-09-02 20:12:00,
2013-09-02 14:22:00,82.0,50.0,-100.00,WSW,245,5.0,11.0,33,0.00,,,0.00,997.000000,,2013-09-02 20:22:00,
2013-09-02 14:30:00,83.0,48.0,-100.00,SSE,160,4.0,10.0,30,0.00,,,0.00,886.000000,,2013-09-02 20:30:00,
2013-09-02 14:52:00,83.0,48.0,-100.00,SSE,160,4.0,10.0,30,0.00,,,0.00,886.000000,,2013-09-02 20:52:00,
2013-09-02 15:02:00,83.0,48.0,-100.00,SSE,160,4.0,10.0,30,0.00,,,0.00,886.000000,,2013-09-02 21:02:00,
2013-09-02 15:12:00,83.0,48.0,-100.00,SSE,160,4.0,10.0,30,0.00,,,0.00,886.000000,,2013-09-02 21:12:00,
2013-09-02 15:23:00,83.0,48.0,-100.00,SSE,160,4.0,10.0,30,0.00,,,0.00,886.000000,,2013-09-02 21:23:00,
2013-09-02 15:30:00,86.0,47.0,-100.00,SW,224,3.0,9.0,26,0.00,,,-99.99,930.000000,,2013-09-02 21:30:00,
2013-09-02 15:55:00,86.0,47.0,-100.00,SW,224,3.0,9.0,26,0.00,,,-99.99,930.000000,,2013-09-02 21:55:00,
2013-09-02 16:04:00,86.0,47.0,-100.00,SW,224,3.0,9.0,26,0.00,,,-99.99,930.000000,,2013-09-02 22:04:00,
2013-09-02 16:13:00,86.0,47.0,-100.00,SW,224,3.0,9.0,26,0.00,,,-99.99,930.000000,,2013-09-02 22:13:00,
2013-09-02 16:23:00,86.0,47.0,-100.00,SW,224,3.0,9.0,26,0.00,,,-99.99,930.000000,,2013-09-02 22:23:00,
2013-09-02 16:30:00,85.0,45.0,-100.00,WNW,287,5.0,12.0,25,0.00,,,0.00,757.000000,,2013-09-02 22:30:00,
2013-09-02 16:54:00,85.0,45.0,-100.00,WNW,287,5.0,12.0,25,0.00,,,0.00,757.000000,,2013-09-02 22:54:00,
2013-09-02 17:03:00,85.0,45.0,-100.00,WNW,287,5.0,12.0,25,0.00,,,0.00,757.000000,,2013-09-02 23:03:00,
2013-09-02 17:12:00,85.0,45.0,-100.00,WNW,287,5.0,12.0,25,0.00,,,0.00,757.000000,,2013-09-02 23:12:00,
2013-09-02 17:22:00,85.0,45.0,-100.00,WNW,287,5.0,12.0,25,0.00,,,0.00,757.000000,,2013-09-02 23:22:00,
2013-09-02 17:30:00,84.0,42.0,-100.00,WNW,297,5.0,12.0,23,0.00,,,0.00,573.000000,,2013-09-02 23:30:00,
2013-09-02 17:53:00,84.0,42.0,-100.00,WNW,297,5.0,12.0,23,0.00,,,0.00,573.000000,,2013-09-02 23:53:00,
2013-09-02 18:01:00,84.0,42.0,-100.00,WNW,297,5.0,12.0,23,0.00,,,0.00,573.000000,,2013-09-03 00:01:00,
2013-09-02 18:11:00,84.0,42.0,-100.00,WNW,297,5.0,12.0,23,0.00,,,0.00,573.000000,,2013-09-03 00:11:00,
2013-09-02 18:21:00,84.0,42.0,-100.00,WNW,297,5.0,12.0,23,0.00,,,0.00,573.000000,,2013-09-03 00:21:00,
2013-09-02 18:30:00,83.0,41.0,-100.00,West,260,4.0,8.0,23,0.00,,,0.00,329.000000,,2013-09-03 00:30:00,
2013-09-02 18:52:00,83.0,41.0,-100.00,West,260,4.0,8.0,23,0.00,,,0.00,329.000000,,2013-09-03 00:52:00,
2013-09-02 19:02:00,83.0,41.0,-100.00,West,260,4.0,8.0,23,0.00,,,0.00,329.000000,,2013-09-03 01:02:00,
2013-09-02 19:11:00,83.0,41.0,-100.00,West,260,4.0,8.0,23,0.00,,,0.00,329.000000,,2013-09-03 01:11:00,
2013-09-02 19:21:00,83.0,41.0,-100.00,West,260,4.0,8.0,23,0.00,,,0.00,329.000000,,2013-09-03 01:21:00,
2013-09-02 19:30:00,76.0,45.0,-100.00,NW,313,3.0,9.0,33,0.00,,,0.00,96.000000,,2013-09-03 01:30:00,
2013-09-02 19:52:00,76.0,45.0,-100.00,NW,313,3.0,9.0,33,0.00,,,0.00,96.000000,,2013-09-03 01:52:00,
2013-09-02 20:02:00,76.0,45.0,-100.00,NW,313,3.0,9.0,33,0.00,,,0.00,96.000000,,2013-09-03 02:02:00,
2013-09-02 20:12:00,76.0,45.0,-100.00,NW,313,3.0,9.0,33,0.00,,,0.00,96.000000,,2013-09-03 02:12:00,
2013-09-02 20:21:00,76.0,45.0,-100.00,NW,313,3.0,9.0,33,0.00,,,0.00,96.000000,,2013-09-03 02:21:00,
2013-09-02 20:30:00,71.0,44.0,-100.00,North,353,3.0,5.0,38,0.00,,,0.00,1.000000,,2013-09-03 02:30:00,
2013-09-02 20:52:00,71.0,44.0,-100.00,North,353,3.0,5.0,38,0.00,,,0.00,1.000000,,2013-09-03 02:52:00,
2013-09-02 21:02:00,71.0,44.0,-100.00,North,353,3.0,5.0,38,0.00,,,0.00,1.000000,,2013-09-03 03:02:00,
2013-09-02 21:11:00,71.0,44.0,-100.00,North,353,3.0,5.0,38,0.00,,,0.00,1.000000,,2013-09-03 03:11:00,
2013-09-02 21:23:00,71.0,44.0,-100.00,North,353,3.0,5.0,38,0.00,,,0.00,1.000000,,2013-09-03 03:23:00,
2013-09-02 21:30:00,69.0,43.0,-100.00,NNW,332,2.0,4.0,39,0.00,,,0.00,0.000000,,2013-09-03 03:30:00,
2013-09-02 21:55:00,69.0,43.0,-100.00,NNW,332,2.0,4.0,39,0.00,,,0.00,0.000000,,2013-09-03 03:55:00,
2013-09-02 22:04:00,69.0,43.0,-100.00,NNW,332,2.0,4.0,39,0.00,,,0.00,0.000000,,2013-09-03 04:04:00,
2013-09-02 22:13:00,69.0,43.0,-100.00,NNW,332,2.0,4.0,39,0.00,,,0.00,0.000000,,2013-09-03 04:13:00,
2013-09-02 22:24:00,69.0,43.0,-100.00,NNW,332,2.0,4.0,39,0.00,,,0.00,0.000000,,2013-09-03 04:24:00,
2013-09-02 22:30:00,69.0,43.0,-100.00,NNW,345,3.0,4.0,39,0.00,,,0.00,0.000000,,2013-09-03 04:30:00,
2013-09-02 22:53:00,69.0,43.0,-100.00,NNW,345,3.0,4.0,39,0.00,,,0.00,0.000000,,2013-09-03 04:53:00,
2013-09-02 23:03:00,69.0,43.0,-100.00,NNW,345,3.0,4.0,39,0.00,,,0.00,0.000000,,2013-09-03 05:03:00,
2013-09-02 23:12:00,69.0,43.0,-100.00,NNW,345,3.0,4.0,39,0.00,,,0.00,0.000000,,2013-09-03 05:12:00,
2013-09-02 23:23:00,69.0,43.0,-100.00,NNW,345,3.0,4.0,39,0.00,,,0.00,0.000000,,2013-09-03 05:23:00,
2013-09-02 23:30:00,68.0,43.0,-100.00,North,358,4.0,5.0,41,0.00,,,0.00,0.000000,,2013-09-03 05:30:00,
2013-09-02 23:52:00,68.0,43.0,-100.00,North,358,4.0,5.0,41,0.00,,,0.00,0.000000,,2013-09-03 05:52:00,